Regional Weather Roundup
Issued by NWS Portland, ME

Home | Current Version | Previous Version | Text Only | Print | Product List | Glossary On
Versions: 1 2 3 4 5 6 7 8 9 10 11 12 13 14 15 16 17 18 19 20 21 22 23 24 25 26 27 28 29 30 31 32 33 34 35 36 37 38 39 40 41 42 43 44 45 46 47 48 49 50
000
ASUS41 KGYX 060310
RWRGYX
WEATHER ROUNDUP FOR MAINE AND NEW HAMPSHIRE
NATIONAL WEATHER SERVICE GRAY ME
1000 PM EST MON DEC 05 2016

MEZ002-005-006-010-012-015-018-020-021-024-026-027-029-060400-
MAINE

CITY           SKY/WX    TMP DP  RH WIND       PRES   REMARKS
PORTLAND       PTCLDY    26  23  88 W3        29.94R
SANFORD        CLEAR     25  24  96 W7        29.94R
BAR HARBOR     LGT SNOW  28  26  92 N7        29.89R FOG
WISCASSET      MOCLDY    27  24  89 CALM      29.93S
ROCKLAND       CLOUDY    30  29  96 NW7       29.88S
FRYEBURG       PTCLDY    19  17  92 CALM      29.91S
LEWISTONAUBURN MOCLDY    23  22  96 N3        29.92S
AUGUSTA        CLOUDY    23  22  96 NW5       29.92R
WATERVILLE     MOCLDY    20  19  96 N3        29.89S
BANGOR         LGT SNOW  26  24  92 N6        29.91S FOG
GREENVILLE       N/A     21  20  96 CALM      29.83R
MILLINOCKET    CLOUDY    23  21  92 CALM      29.92S
HOULTON        LGT SNOW  19  17  92 N3        29.91S FOG
PRESQUE ISLE   FLURRIES  16  14  92 CALM      29.93S
FRENCHVILLE    CLOUDY    16  12  84 CALM      29.89R
CARIBOU        CLOUDY    16  12  84 NW3       29.91S
$$

NHZ002-005-008-009-011-012-014-060400-
NEW HAMPSHIRE

CITY           SKY/WX    TMP DP  RH WIND       PRES   REMARKS
PORTSMOUTH     PTCLDY    30  28  92 W8        29.94R
ROCHESTER      CLEAR     30  25  81 CALM      29.94R
NASHUA         CLEAR     22  21  96 CALM      29.98R
MANCHESTER     PTCLDY    26  23  88 CALM      29.96R
CONCORD        FOG       24  20  84 CALM      29.96S VSB 1/4
LACONIA        PTCLDY    27  26  96 W8        29.94R
PLYMOUTH         N/A     32  30  93 NW3       29.94R
BERLIN         CLOUDY    31  25  78 S5        29.91R
WHITEFIELD     CLOUDY    31  26  82 VRB3      29.94R
JAFFREY        PTCLDY    29  26  89 S6        29.96R
KEENE          CLEAR     25  23  93 CALM      29.99S FOG
LEBANON        CLOUDY    29  27  92 CALM      29.96R
MT WASHINGTON  BLWGSNOW  12  12 100 NW58G66     N/A  VSB 0   WCI -15
$$

VTZ005-007-008-060400-
VERMONT

CITY           SKY/WX    TMP DP  RH WIND       PRES   REMARKS
ST JOHNSBURY     N/A     33  27  78 MISG      29.95R
MONTPELIER     CLOUDY    31  28  89 NW8       29.99R
BURLINGTON     CLOUDY    33  30  88 N3        30.01R
$$

MAZ007-012-024-CTZ003-RIZ002-NYZ038-NYZ072-060400-
SOUTHERN NEW ENGLAND AND NY

CITY           SKY/WX    TMP DP  RH WIND       PRES   REMARKS
BOSTON         CLEAR     39  32  76 W14       29.98R
WORCESTER      CLOUDY    34  29  82 W9        29.97S
NANTUCKET      CLEAR     41  33  73 NW14      29.97R
PROVIDENCE     CLEAR     39  30  70 W7        30.02R
HARTFORD       CLOUDY    36  29  75 W3        30.03R
ALBANY         MOCLDY    38  31  76 W7        30.04R
NEW YORK CITY  MOCLDY    46  32  58 NW8       30.09R
$$

ANZ081-ANZ082-ANZ150-NHZ014-MEZ023>029-060400-
COASTAL MARINE OBSERVATIONS

STATION/POSITION TIME  TEMP    WIND        PRES    WAVE
                       AIR SEA DIR/SP/G            HT/PER
                 (UTC) (F)     (DEG/KT/KT) (MB)    (FT/S)
MOUNT DESERT ROC 0300   40                 1010.5F
MATINICUS ROCK   0200   37     300/ 22/ 24 1010.5R
ISLE OF SHOALS   0200   36     270/ 16/ 17 1013.4R
JEFFREYS LEDGE   0208      51                N/A     4/ 4
CASHES LEDGE BUO 0250   39 50  280/ 19/ 25 1011.7R   5/ 4
GEORGES BANK BUO 0250   50 51              1009.5F   5/11
$$

.............KEY..............
   WCI - WIND CHILL
   TC  - TEMPERATURE IN CELSIUS
   VSB - VISIBILITY IN MILES
   HX  - HEAT INDEX
   FAIR- INDICATES FEW OR NO CLOUDS BELOW 12,000 FT, WITH NO
         SIGNIFICANT WEATHER AND/OR OBSTRUCTIONS TO VISIBILITY.






USA.gov is the U.S. government's official web portal to all federal, state and local government web resources and services.